Hailey, ID

7:57 AM MST on December 07, 2016 (GMT -0700)
Friedman Memorial

Weather History for KSUN - February, 2014

Change the Weather History Date:

Wednesday, February 19, 2014

  Actual Average Record
Temperature  
Mean Temperature 27 °F -  
Max Temperature 35 °F 37 °F 55 °F (2015)
Min Temperature 19 °F 16 °F 1 °F (2006)
Degree Days  
Heating Degree Days 38    
Moisture  
Dew Point 19 °F    
Average Humidity 68    
Maximum Humidity 93    
Minimum Humidity 28    
Precipitation  
Precipitation 0.00 in - - ()
Sea Level Pressure  
Sea Level Pressure 29.83 in    
Wind  
Wind Speed 7 mph (WNW)    
Max Wind Speed 21 mph    
Max Gust Speed 29 mph    
Visibility 10 miles    
Events Snow    
Averages and records for this station are not official NWS values.
T = Trace of Precipitation, MM = Missing Value Source: NWS Daily Summary

Daily Weather History Graph

Daily Weather History Graph

Search for Another Location

Airport or City:

Trip Planner

Search our weather history database for the weather conditions in past years. The results will help you decide how hot, cold, wet, or windy it might be!

Date:

Astronomy

Feb. 19, 2014 Rise Set
Actual Time 7:29 AM MST 6:13 PM MST
Civil Twilight 7:00 AM MST 6:42 PM MST
Nautical Twilight 6:27 AM MST 7:15 PM MST
Astronomical Twilight 5:53 AM MST 7:48 PM MST
Moon 11:20 PM MST (2/19) 9:28 AM MST (2/19)
Length of Visible Light 11h 42m
Length of Day
10h 43m
Waning Gibbous, 79% of the Moon is Illuminated
Feb 19
Waning Gibbous
Feb 22
Last Quarter
Mar 1
New
Mar 8
First Quarter
Mar 16
Full

Hourly Weather History & Observations

Time (MST) Temp. Windchill Dew Point Humidity Pressure Visibility Wind Dir Wind Speed Gust Speed Precip Events Conditions
12:15 AM 32.0 °F 26.4 °F 28.4 °F 87% 29.81 in 10.0 mi NW 5.8 mph - N/A   Mostly Cloudy
12:35 AM 32.0 °F 25.6 °F 28.4 °F 87% 29.79 in 10.0 mi NW 6.9 mph - N/A   Overcast
12:55 AM 32.0 °F 26.4 °F 28.4 °F 87% 29.78 in 10.0 mi NW 5.8 mph - N/A   Overcast
1:15 AM 32.0 °F 24.8 °F 28.4 °F 87% 29.76 in 10.0 mi WNW 8.1 mph - N/A   Overcast
1:35 AM 32.0 °F 26.4 °F 28.4 °F 87% 29.75 in 10.0 mi NNW 5.8 mph - N/A   Overcast
1:55 AM 32.0 °F 27.5 °F 28.4 °F 87% 29.75 in 10.0 mi NNW 4.6 mph - N/A   Overcast
2:15 AM 32.0 °F 26.4 °F 28.4 °F 87% 29.73 in 10.0 mi WNW 5.8 mph - N/A   Overcast
2:35 AM 32.0 °F - 28.4 °F 87% 29.73 in 7.0 mi Calm Calm - N/A   Overcast
2:55 AM 33.8 °F - 30.2 °F 87% 29.72 in 5.0 mi Calm Calm - N/A Snow Light Snow
3:15 AM 35.6 °F 30.7 °F 30.2 °F 81% 29.71 in 10.0 mi SSW 5.8 mph - N/A   Overcast
3:35 AM 35.6 °F 29.2 °F 30.2 °F 81% 29.71 in 4.0 mi SE 8.1 mph - N/A Snow Light Snow
3:55 AM 33.8 °F 27.0 °F 32.0 °F 93% 29.69 in 5.0 mi SSE 8.1 mph - N/A Snow Light Snow
4:15 AM 35.6 °F 28.0 °F 30.2 °F 81% 29.68 in 10.0 mi SE 10.4 mph 16.1 mph N/A Snow Light Snow
4:35 AM 35.6 °F 28.0 °F 30.2 °F 81% 29.68 in 10.0 mi SW 10.4 mph - N/A   Overcast
4:55 AM 35.6 °F 29.2 °F 30.2 °F 81% 29.67 in 10.0 mi SSW 8.1 mph - N/A   Overcast
5:15 AM 35.6 °F 31.7 °F 30.2 °F 81% 29.67 in 10.0 mi WSW 4.6 mph - N/A   Overcast
5:35 AM 33.8 °F 27.7 °F 30.2 °F 87% 29.67 in 10.0 mi NNW 6.9 mph - N/A   Overcast
5:55 AM 33.8 °F 27.7 °F 30.2 °F 87% 29.68 in 10.0 mi NNW 6.9 mph - N/A   Overcast
6:47 AM 35.6 °F 30.7 °F 15.8 °F 44% 29.68 in 10.0 mi NW 5.8 mph - N/A   Overcast
7:47 AM 32.0 °F - 17.6 °F 55% 29.71 in 10.0 mi Calm Calm - N/A   Scattered Clouds
8:47 AM 32.0 °F 26.4 °F 14.0 °F 48% 29.75 in 10.0 mi NNW 5.8 mph - N/A   Partly Cloudy
9:47 AM 33.8 °F 25.3 °F 10.4 °F 38% 29.79 in 10.0 mi NW 11.5 mph - N/A   Partly Cloudy
10:47 AM 35.6 °F 27.5 °F 8.6 °F 33% 29.81 in 10.0 mi NW 11.5 mph - N/A   Partly Cloudy
11:50 AM 35.6 °F 24.5 °F 5.0 °F 28% 29.82 in 10.0 mi WNW 20.7 mph 28.8 mph N/A   Partly Cloudy
12:47 PM 35.6 °F 26.2 °F 8.6 °F 33% 29.82 in 10.0 mi West 15.0 mph - N/A   Scattered Clouds
1:47 PM 32.0 °F 23.6 °F 15.8 °F 51% 29.83 in 10.0 mi WNW 10.4 mph - N/A   Scattered Clouds
2:50 PM 32.0 °F 23.0 °F 6.8 °F 35% 29.84 in 10.0 mi West 11.5 mph 24.2 mph N/A   Scattered Clouds
3:47 PM 32.0 °F 21.2 °F 8.6 °F 38% 29.86 in 10.0 mi West 16.1 mph 25.3 mph N/A   Scattered Clouds
4:47 PM 32.0 °F 22.1 °F 6.8 °F 35% 29.88 in 10.0 mi West 13.8 mph - N/A   Scattered Clouds
5:47 PM 28.4 °F 18.5 °F 12.2 °F 51% 29.91 in 10.0 mi WSW 11.5 mph - N/A   Scattered Clouds
6:47 PM - - - N/A% 29.94 in 10.0 mi NW 11.5 mph - N/A   Scattered Clouds
7:47 PM 24.8 °F - 12.2 °F 59% 29.98 in 10.0 mi Calm Calm - N/A   Partly Cloudy
8:47 PM 24.8 °F - 14.0 °F 64% 30.00 in 10.0 mi Calm Calm - N/A   Partly Cloudy
9:47 PM 19.4 °F - 12.2 °F 74% 30.04 in 10.0 mi Calm Calm - N/A   Partly Cloudy
10:15 PM 19.4 °F - 12.2 °F 74% 30.04 in 10.0 mi Calm Calm - N/A   Clear
10:35 PM 21.2 °F - 12.2 °F 68% 30.04 in 10.0 mi Calm Calm - N/A   Clear
10:47 PM 19.4 °F - 12.2 °F 74% 30.04 in 10.0 mi Calm Calm - N/A   Partly Cloudy
10:55 PM 19.4 °F 14.3 °F 12.2 °F 74% 30.04 in 10.0 mi WNW 3.5 mph - N/A   Clear
11:15 PM 19.4 °F 12.8 °F 10.4 °F 68% 30.05 in 10.0 mi North 4.6 mph - N/A   Scattered Clouds
11:35 PM 19.4 °F 12.8 °F 10.4 °F 68% 30.05 in 10.0 mi NW 4.6 mph - N/A   Scattered Clouds
11:55 PM 19.4 °F 12.8 °F 10.4 °F 68% 30.06 in 10.0 mi North 4.6 mph - N/A   Clear